TimeAST,TemperatureF,Dew PointF,Humidity,Sea Level PressureIn,VisibilityMPH,Wind Direction,Wind SpeedMPH,Gust SpeedMPH,PrecipitationIn,Events,Conditions,WindDirDegrees,DateUTC
12:53 AM,84.0,79.0,85,29.88,10.0,South,9.2,-,N/A,,Scattered Clouds,190,2013-09-21 04:53:00
1:53 AM,84.0,79.0,85,29.86,10.0,SSW,9.2,-,N/A,,Scattered Clouds,210,2013-09-21 05:53:00
2:53 AM,84.0,79.0,85,29.84,10.0,SW,9.2,-,N/A,,Partly Cloudy,220,2013-09-21 06:53:00
3:53 AM,84.0,79.0,85,29.84,10.0,WSW,8.1,-,N/A,,Partly Cloudy,240,2013-09-21 07:53:00
4:53 AM,84.0,79.0,85,29.85,10.0,WSW,8.1,-,N/A,,Scattered Clouds,250,2013-09-21 08:53:00
5:53 AM,84.0,79.0,85,29.86,10.0,WSW,5.8,-,N/A,,Partly Cloudy,240,2013-09-21 09:53:00
6:53 AM,84.0,79.0,85,29.88,10.0,WSW,5.8,-,N/A,,Scattered Clouds,240,2013-09-21 10:53:00
7:53 AM,84.9,79.0,82,29.89,10.0,SW,4.6,-,N/A,,Scattered Clouds,220,2013-09-21 11:53:00
8:53 AM,86.0,79.0,79,29.91,10.0,SSW,3.5,-,N/A,,Scattered Clouds,210,2013-09-21 12:53:00
9:01 AM,86.0,78.8,79,29.91,10.0,WSW,3.5,-,N/A,,Mostly Cloudy,240,2013-09-21 13:01:00
9:08 AM,86.0,78.8,79,29.91,10.0,Calm,Calm,-,N/A,,Scattered Clouds,0,2013-09-21 13:08:00
9:53 AM,87.1,79.0,77,29.92,10.0,SSW,4.6,-,N/A,,Clear,210,2013-09-21 13:53:00
10:53 AM,87.1,79.0,77,29.92,10.0,SW,5.8,-,N/A,,Scattered Clouds,220,2013-09-21 14:53:00
11:53 AM,88.0,79.0,75,29.90,10.0,SW,3.5,-,N/A,,Clear,220,2013-09-21 15:53:00
12:53 PM,88.0,79.0,75,29.88,10.0,SW,6.9,-,N/A,,Partly Cloudy,230,2013-09-21 16:53:00
1:53 PM,88.0,79.0,75,29.86,10.0,SSW,5.8,-,N/A,,Clear,200,2013-09-21 17:53:00
2:10 PM,87.8,78.8,75,29.85,2.0,South,8.1,-,N/A,,Haze,190,2013-09-21 18:10:00
2:20 PM,87.8,78.8,75,29.85,10.0,South,6.9,-,N/A,,Partly Cloudy,180,2013-09-21 18:20:00
2:53 PM,88.0,79.0,75,29.84,10.0,SSW,6.9,-,N/A,,Clear,200,2013-09-21 18:53:00
3:17 PM,86.0,80.6,84,29.85,10.0,South,11.5,-,N/A,,Mostly Cloudy,190,2013-09-21 19:17:00
3:31 PM,87.8,78.8,75,29.85,10.0,South,6.9,-,N/A,,Mostly Cloudy,180,2013-09-21 19:31:00
3:53 PM,87.1,78.1,74,29.86,10.0,South,6.9,-,N/A,,Partly Cloudy,190,2013-09-21 19:53:00
4:53 PM,86.0,79.0,79,29.86,10.0,SSE,5.8,-,N/A,,Clear,160,2013-09-21 20:53:00
5:53 PM,84.9,78.1,80,29.85,10.0,South,5.8,-,N/A,,Clear,170,2013-09-21 21:53:00
6:53 PM,84.9,78.1,80,29.87,10.0,SE,4.6,-,N/A,,Clear,130,2013-09-21 22:53:00
7:53 PM,84.9,78.1,80,29.89,10.0,SSE,4.6,-,N/A,,Scattered Clouds,150,2013-09-21 23:53:00
8:53 PM,84.0,79.0,85,29.92,10.0,SE,3.5,-,N/A,,Scattered Clouds,140,2013-09-22 00:53:00
9:53 PM,82.9,79.0,88,29.92,10.0,ENE,4.6,-,N/A,,Partly Cloudy,70,2013-09-22 01:53:00
10:12 PM,84.2,78.8,84,29.92,10.0,Calm,Calm,-,N/A,,Mostly Cloudy,0,2013-09-22 02:12:00
10:53 PM,84.0,80.1,88,29.91,10.0,South,8.1,-,N/A,,Overcast,170,2013-09-22 02:53:00
11:06 PM,84.2,78.8,84,29.91,10.0,SSE,9.2,-,N/A,,Scattered Clouds,160,2013-09-22 03:06:00
11:53 PM,84.0,79.0,85,29.91,10.0,South,5.8,-,N/A,,Partly Cloudy,180,2013-09-22 03:53:00